STARLINK-37889, 69536

Orbit data source: Space-Track

STARLINK-37889, 69536 is a payload satellite owned by SpaceX/Seattle (US) in LEO that was launched on Fri, 12 Jun 2026 UTC via an FALCON 9 launch vehicle from the Air Force Eastern Test Range (AFETR). Payload-class satellites include a variety of spacecraft equipped with specific instruments for various scientific and technological missions. These include communications satellites like Starlink; space stations such as the ISS; scientific satellites like the Hubble; Earth observation satellites from companies like Planet Labs, Umbra, and HawkEye 360; GPS; miniature CubeSats for education and research; and military/defense satellites.

Loading next visibility...
Identifier
69536, 2026-133AE
Orbit
LEO
Country
Flag of USUS
Related business
Manufacturer
SpaceX/Seattle
Mission
Operational spacecraft
Bus & Motor
STARLINK V2MO, Unknown motor
Mass
575 kg wet, ~530 kg dry
Launch date (UTC)
2026-06-12 (1 week ago)
Launch vehicle
FALCON 9
Launch site
Air Force Eastern Test Range (AFETR)
Object type
Payload
Rocket body
Debris
Shape & HBR
Unknown
Radar Cross Section
RCS unknown

Expand to show TLE details & history
Last TLE update: 10 hours ago

TLE from 10 hours ago
0 STARLINK-37889
1 69536U 26133AE  26171.41668980 -.01713156  91014-3 -28835-2 0  9995
2 69536  53.1595 306.0960 0000717  72.8756 339.3744 16.02219676  2389
Epoch: 2026-06-20T10:00Z
TLE epoch observation values (Epoch: 2026-06-20T10:00:01.998Z)
Latitude
39.38589°
Longitude
-74.83888°
Altitude
271.274 km
Speed
7.75 km/s
True Right ascension
22h 55m 12s
True Declination
39° 12' 18"
Sunlit
Object was in daylight at epoch
Visualization orbit readout
Latitude
Unknown
Longitude
Unknown
Altitude
Unknown
Speed
Unknown
Apparent Right ascension
Unknown
Apparent Declination
Unknown
Sunlit
N/A
Visualization observer readout
Local Sidereal Time
07:16:55
Azimuth
Unknown
Elevation
Unknown
Doppler factor
Unknown
Orbital elements
Apogee altitude
269.014 km
Perigee altitude
268.061 km
Semi-major axis
6,646.674 km
Eccentricity
0.00007
Inclination
53.1595°
RAAN
306.096°
Arg. of periapsis
72.8756°
True anomaly
339.37151°
Mean anomaly
339.3744°
Eccentric anomaly
339.37295°
Mean motion
4.00531 °/min
Orbital period
89.88 mins
BSTAR
-0.0028835
Loading maneuver chart data...
Computing Atmospheric mass density...
Loading historical data...
Loading historical data...
Loading historical data...
Loading historical data...
Loading historical data...
Loading historical data...
Loading historical data...

Documentation

Showing up to 5 results
|